| time (UTC) | temp F | wind direction | speed knots | gust knots | rain 1hr in | rain 24hr in | rain mn in | humidity % | barometer mb |
| 20260507094606 | 53 | 256 | 7.0 | 20.9 | 0.00 | 0.00 | 0.00 | 68 | 1019.2 |
| 20260507091535 | 53 | 229 | 8.7 | 18.2 | 0.00 | 0.00 | 0.00 | 69 | 1019.3 |
| 20260507084535 | 53 | 230 | 7.8 | 18.2 | 0.00 | 0.00 | 0.00 | 69 | 1019.7 |
| 20260507083028 | 54 | 226 | 7.8 | 19.1 | 0.00 | 0.00 | 0.00 | 69 | 1019.7 |
| 20260507081533 | 54 | 240 | 6.1 | 19.1 | 0.00 | 0.00 | 0.00 | 69 | 1019.7 |
| 20260507080149 | 54 | 249 | 5.2 | 13.0 | 0.00 | 0.00 | 0.00 | 69 | 1019.7 |
| 20260507074532 | 54 | 262 | 3.5 | 15.6 | 0.00 | 0.00 | 0.00 | 69 | 1019.8 |
| 20260507071607 | 54 | 275 | 4.3 | 12.2 | 0.00 | 0.00 | 0.00 | 70 | 1019.8 |
| 20260507070030 | 54 | 260 | 4.3 | 11.3 | 0.00 | 0.00 | 0.00 | 70 | 1019.9 |
| 20260507064532 | 54 | 266 | 4.3 | 13.0 | 0.00 | 0.00 | 0.00 | 69 | 1020.0 |
| 20260507063033 | 55 | 264 | 4.3 | 13.0 | 0.00 | 0.00 | 0.00 | 69 | 1020.2 |
| 20260507061535 | 54 | 267 | 3.5 | 13.9 | 0.00 | 0.00 | 0.00 | 69 | 1020.3 |
| 20260507060106 | 55 | 322 | 3.5 | 8.7 | 0.00 | 0.00 | 0.00 | 68 | 1020.4 |
| 20260507053032 | 56 | 284 | 4.3 | 10.4 | 0.00 | 0.00 | 0.00 | 65 | 1020.5 |
| 20260507050037 | 56 | 202 | 4.3 | 18.2 | 0.00 | 0.00 | 0.00 | 62 | 1020.6 |
| 20260507044534 | 56 | 252 | 5.2 | 14.8 | 0.00 | 0.00 | 0.00 | 62 | 1020.3 |
| 20260507041529 | 57 | 209 | 6.1 | 13.0 | 0.00 | 0.00 | 0.00 | 60 | 1020.4 |
| 20260507040045 | 56 | 207 | 5.2 | 10.4 | 0.00 | 0.00 | 0.00 | 59 | 1020.3 |
| 20260507034607 | 57 | 243 | 2.6 | 7.8 | 0.00 | 0.00 | 0.00 | 58 | 1020.3 |
| 20260507033031 | 58 | 233 | 3.5 | 8.7 | 0.00 | 0.00 | 0.00 | 58 | 1020.3 |
| 20260507031530 | 59 | 228 | 2.6 | 6.1 | 0.00 | 0.00 | 0.00 | 59 | 1020.3 |
| 20260507030038 | 60 | 246 | 2.6 | 10.4 | 0.00 | 0.00 | 0.00 | 58 | 1020.3 |
| 20260507024535 | 61 | 260 | 5.2 | 10.4 | 0.00 | 0.00 | 0.00 | 56 | 1020.3 |
| 20260507023150 | 63 | 262 | 7.0 | 16.5 | 0.00 | 0.00 | 0.00 | 54 | 1020.2 |
| 20260507021532 | 64 | 260 | 6.1 | 17.4 | 0.00 | 0.00 | 0.00 | 51 | 1020.0 |
| 20260507020029 | 65 | 264 | 7.0 | 20.0 | 0.00 | 0.00 | 0.00 | 50 | 1019.8 |
| 20260507014552 | 66 | 256 | 6.1 | 12.2 | 0.00 | 0.00 | 0.00 | 48 | 1019.7 |
| 20260507013148 | 67 | 257 | 7.0 | 15.6 | 0.00 | 0.00 | 0.00 | 46 | 1019.6 |
| 20260507011535 | 67 | 245 | 6.1 | 15.6 | 0.00 | 0.00 | 0.00 | 46 | 1019.8 |
| 20260507010031 | 68 | 242 | 6.1 | 13.0 | 0.00 | 0.00 | 0.00 | 44 | 1019.8 |
| 20260507004530 | 70 | 234 | 5.2 | 13.0 | 0.00 | 0.00 | 0.00 | 41 | 1019.7 |
| 20260507003033 | 71 | 224 | 7.0 | 15.6 | 0.00 | 0.00 | 0.00 | 41 | 1019.6 |
| 20260507001606 | 71 | 231 | 6.1 | 17.4 | 0.00 | 0.00 | 0.00 | 41 | 1019.5 |
| 20260507000030 | 71 | 237 | 6.1 | 19.1 | 0.00 | 0.00 | 0.00 | 40 | 1019.4 |
| 20260506234536 | 73 | 255 | 7.8 | 19.1 | 0.00 | 0.00 | 0.00 | 38 | 1019.2 |
| 20260506233035 | 74 | 252 | 6.1 | 15.6 | 0.00 | 0.00 | 0.00 | 38 | 1019.2 |
| 20260506231531 | 74 | 233 | 5.2 | 14.8 | 0.00 | 0.00 | 0.00 | 38 | 1019.2 |
| 20260506230107 | 74 | 243 | 6.1 | 17.4 | 0.00 | 0.00 | 0.00 | 38 | 1019.2 |
| 20260506224607 | 74 | 234 | 6.1 | 18.2 | 0.00 | 0.00 | 0.00 | 39 | 1019.3 |
| 20260506223107 | 73 | 240 | 6.1 | 19.1 | 0.00 | 0.00 | 0.00 | 40 | 1019.5 |
| 20260506221535 | 73 | 270 | 6.1 | 14.8 | 0.00 | 0.00 | 0.00 | 39 | 1019.6 |
| 20260506220032 | 74 | 267 | 7.8 | 19.1 | 0.00 | 0.00 | 0.00 | 38 | 1019.4 |
| 20260506211534 | 74 | 278 | 4.3 | 13.9 | 0.00 | 0.00 | 0.00 | 42 | 1019.4 |
| 20260506210032 | 74 | 274 | 6.1 | 16.5 | 0.00 | 0.00 | 0.00 | 43 | 1019.5 |
| 20260506204535 | 73 | 300 | 5.2 | 13.9 | 0.00 | 0.00 | 0.00 | 44 | 1019.6 |
| 20260506200029 | 74 | 291 | 6.1 | 15.6 | 0.00 | 0.00 | 0.00 | 44 | 1019.6 |
| 20260506191641 | 71 | 298 | 6.1 | 14.8 | 0.00 | 0.00 | 0.00 | 49 | 1019.7 |
| 20260506184531 | 70 | 352 | 7.8 | 13.9 | 0.00 | 0.00 | 0.00 | 52 | 1019.5 |
| 20260506181535 | 69 | 319 | 7.0 | 15.6 | 0.00 | 0.00 | 0.00 | 54 | 1019.8 |
| 20260506180031 | 68 | 346 | 7.0 | 13.0 | 0.00 | 0.00 | 0.00 | 56 | 1019.8 |
| 20260506174534 | 67 | 348 | 5.2 | 11.3 | 0.00 | 0.00 | 0.00 | 59 | 1019.7 |
| 20260506173034 | 66 | 9 | 4.3 | 7.8 | 0.00 | 0.00 | 0.00 | 60 | 1019.6 |
| 20260506171534 | 65 | 1 | 5.2 | 8.7 | 0.00 | 0.00 | 0.00 | 61 | 1019.7 |
| 20260506170033 | 64 | 14 | 4.3 | 7.8 | 0.00 | 0.00 | 0.00 | 63 | 1019.6 |
| 20260506164530 | 63 | 29 | 7.0 | 13.0 | 0.00 | 0.00 | 0.00 | 65 | 1019.8 |
| 20260506163107 | 63 | 26 | 7.0 | 10.4 | 0.00 | 0.00 | 0.00 | 66 | 1020.0 |
| 20260506161535 | 62 | 12 | 6.1 | 10.4 | 0.00 | 0.00 | 0.00 | 68 | 1020.1 |
| 20260506160031 | 61 | 26 | 4.3 | 7.8 | 0.00 | 0.00 | 0.00 | 69 | 1019.9 |
| 20260506154652 | 60 | 344 | 4.3 | 7.8 | 0.00 | 0.00 | 0.00 | 69 | 1020.0 |
| 20260506151643 | 60 | 64 | 0.9 | 4.3 | 0.00 | 0.00 | 0.00 | 73 | 1019.6 |
| 20260506150033 | 59 | 95 | 0.9 | 2.6 | 0.00 | 0.00 | 0.00 | 76 | 1019.8 |
| 20260506144531 | 59 | 108 | 0.9 | 3.5 | 0.00 | 0.00 | 0.00 | 81 | 1019.8 |
| 20260506143107 | 56 | 82 | 0.0 | 2.6 | 0.00 | 0.00 | 0.00 | 85 | 1019.8 |
| 20260506141535 | 53 | 82 | 0.9 | 4.3 | 0.00 | 0.00 | 0.00 | 89 | 1019.7 |
| 20260506140032 | 49 | 132 | 2.6 | 5.2 | 0.00 | 0.00 | 0.00 | 92 | 1019.6 |
| 20260506134606 | 45 | 142 | 3.5 | 5.2 | 0.00 | 0.00 | 0.00 | 92 | 1019.3 |
| 20260506133032 | 44 | 136 | 2.6 | 4.3 | 0.00 | 0.00 | 0.00 | 92 | 1019.2 |
| 20260506131645 | 43 | 145 | 2.6 | 5.2 | 0.00 | 0.00 | 0.00 | 92 | 1019.1 |
| 20260506130107 | 43 | 173 | 2.6 | 5.2 | 0.00 | 0.00 | 0.00 | 92 | 1019.0 |
| 20260506123036 | 43 | 180 | 3.5 | 4.3 | 0.00 | 0.00 | 0.00 | 92 | 1018.7 |
| 20260506121534 | 43 | 180 | 3.5 | 4.3 | 0.00 | 0.00 | 0.00 | 92 | 1018.5 |
| 20260506120035 | 43 | 184 | 3.5 | 4.3 | 0.00 | 0.00 | 0.00 | 91 | 1018.4 |
| 20260506114535 | 44 | 180 | 3.5 | 5.2 | 0.00 | 0.00 | 0.00 | 91 | 1018.3 |
| 20260506113034 | 44 | 200 | 3.5 | 4.3 | 0.00 | 0.00 | 0.00 | 91 | 1018.1 |
| 20260506111536 | 44 | 188 | 3.5 | 4.3 | 0.00 | 0.00 | 0.00 | 91 | 1018.0 |
| 20260506110030 | 44 | 180 | 3.5 | 4.3 | 0.00 | 0.00 | 0.00 | 91 | 1018.0 |
| 20260506104532 | 44 | 180 | 2.6 | 3.5 | 0.00 | 0.00 | 0.00 | 90 | 1017.8 |
| 20260506101530 | 45 | 158 | 0.9 | 2.6 | 0.00 | 0.00 | 0.00 | 90 | 1017.6 |
| 20260506100057 | 45 | 203 | 0.9 | 3.5 | 0.00 | 0.00 | 0.00 | 90 | 1017.6 |